SCP
1 1 1 0 0 0 0 0 0 0 0 0 0 0 0 0 0 0 0 0 0 1 1 1 1 1 1 1 1 1 1 0 0 0 0 0 0 0 0 0 0 1 1
1 1 1 1 0 0 0 0 0 0 0 0 0 0 0 0 0 0 0 0 0 1 1 1 1 1 1 1 1 1 1 0 0 0 0 0 0 0 0 0 0 1 1
1 1 1 1 1 0 0 0 0 0 0 0 0 0 0 0 0 0 0 0 0 0 1 1 1 1 1 1 1 1 1 0 0 0 1 0 0 0 0 0 0 0 0
2 2 2 1 1 1 0 0 0 0 0 0 0 0 0 0 0 0 0 0 0 0 1 1 1 1 1 1 1 1 1 1 1 1 1 1 0 0 0 0 0 0 0
2 2 2 2 1 1 0 0 0 0 0 0 0 0 0 0 0 0 0 0 0 0 1 1 1 1 1 1 1 1 1 1 1 1 1 1 1 1 1 0 0 0 0
2 2 2 2 1 1 0 0 0 0 0 0 0 0 0 0 0 0 0 0 0 0 1 1 1 1 1 1 0 1 1 1 1 1 1 1 1 1 1 1 0 0 0
2 2 2 2 1 1 0 0 0 0 0 0 0 0 0 0 0 0 0 0 0 0 0 1 0 0 0 0 0 0 1 0 0 1 1 1 1 1 1 1 1 1 0
1 1 1 1 1 1 0 0 0 0 0 0 0 0 0 0 0 0 0 0 0 0 0 0 0 0 0 0 0 0 0 0 1 1 1 1 1 1 1 1 1 1 1
0 0 1 1 1 0 0 0 0 0 0 0 0 0 0 0 0 0 0 0 0 0 0 0 0 1 0 0 0 0 0 0 1 1 1 1 1 1 1 1 1 1 1
0 0 0 0 0 0 0 0 0 0 0 0 0 0 0 0 0 0 0 0 0 0 0 0 0 1 1 0 0 0 0 0 1 1 1 1 0 1 1 1 1 1 1
0 0 0 0 0 0 0 0 0 0 0 0 0 0 0 0 0 0 0 0 0 0 0 0 0 1 0 0 0 0 0 0 1 1 1 1 0 1 1 1 1 1 0
0 0 0 0 0 0 0 0 0 0 0 0 0 0 0 0 0 0 0 0 0 0 0 0 0 0 0 0 0 0 0 0 1 1 1 1 1 1 1 1 1 0 0
0 0 0 0 0 0 0 0 0 0 0 0 0 0 0 0 0 0 0 0 0 0 0 0 0 0 0 0 0 0 0 0 0 1 1 1 1 1 1 0 0 0 0
0 0 0 0 0 0 0 0 0 0 0 0 0 0 0 0 0 0 0 0 0 0 0 0 0 0 0 0 0 0 0 0 0 0 1 1 0 0 0 0 0 0 0
0 0 0 0 0 0 0 0 0 0 0 0 0 0 0 0 0 0 0 0 0 0 0 0 0 0 0 0 0 0 0 0 0 0 0 0 0 0 0 0 0 0 0
0 0 0 0 0 0 0 0 0 0 0 0 0 0 0 0 0 0 0 0 0 0 0 0 0 0 0 0 0 0 0 0 0 0 0 0 0 0 0 0 0 0 0
0 0 0 0 0 0 0 0 0 0 0 0 0 0 0 0 0 0 0 0 0 0 0 0 0 0 0 0 0 0 0 0 0 0 0 0 0 0 0 0 0 0 0
0 0 0 0 0 0 0 0 0 0 0 0 0 0 0 0 0 0 0 0 0 0 0 0 0 0 0 0 0 0 0 0 0 0 0 0 0 0 0 0 0 0 0
0 0 0 0 0 0 0 0 0 0 0 0 0 0 0 0 0 0 0 0 0 0 0 0 0 0 0 0 0 0 0 0 0 0 0 0 0 0 0 0 0 0 0
0 0 0 0 0 0 0 0 0 0 0 0 0 0 0 0 0 0 0 0 0 0 0 0 0 0 0 0 0 0 0 0 0 0 0 0 0 0 0 0 0 0 0
0 0 0 0 0 0 0 0 0 0 0 0 0 0 0 0 0 0 0 0 0 0 0 0 0 0 0 0 0 0 0 0 0 0 0 0 0 0 0 0 0 0 0
0 0 0 0 0 0 0 0 0 0 0 0 0 0 0 0 0 0 0 0 0 0 0 0 0 0 0 0 0 0 0 0 0 0 0 0 0 0 0 0 0 0 0
0 0 0 0 0 0 0 0 0 0 0 0 0 0 0 0 0 0 0 0 0 0 0 0 0 0 0 0 0 0 0 0 0 0 0 0 0 0 0 0 0 0 0
0 0 0 0 0 0 0 0 0 0 0 0 0 0 0 0 0 0 0 0 0 0 0 0 0 0 0 0 0 0 0 0 0 0 0 0 0 0 0 0 0 0 0
0 0 0 0 0 0 0 0 0 0 0 0 0 0 0 0 0 0 0 0 0 0 0 0 0 0 0 0 0 0 0 0 0 0 0 0 0 0 0 0 0 0 0
0 0 0 0 0 0 0 0 0 0 0 0 0 0 0 0 0 0 0 0 0 0 0 0 0 0 0 0 0 0 0 0 0 0 0 0 0 0 0 0 0 0 0
Wind_Speed
2 2 2 2 3 3 2 3 3 4 3 3 3 3 3 2 2 1 1 3 3 2 1 0 1 1 2 2 3 3 3 3 4 4 4 5 5 5 5 5 6 6 7
2 2 2 2 2 3 3 3 3 3 3 2 3 3 2 2 2 1 0 1 2 2 1 0 0 1 2 2 2 3 3 3 3 4 4 4 4 4 4 5 5 5 6
2 2 2 2 2 2 3 3 3 3 3 3 3 3 2 2 2 2 0 0 0 1 1 1 1 0 1 1 2 2 2 2 3 3 3 3 4 4 4 4 4 4 4
3 2 2 2 2 2 2 2 2 3 3 3 3 3 2 2 2 2 1 0 0 0 1 1 1 0 1 0 1 2 2 2 3 3 3 3 3 4 4 4 4 4 4
2 2 2 2 2 2 2 3 3 2 3 3 3 2 2 2 2 1 1 0 0 1 0 0 1 1 0 0 0 2 3 3 3 3 3 2 3 4 4 4 4 4 4
2 2 1 2 2 2 2 3 3 3 2 3 4 3 2 2 2 1 1 0 1 1 1 1 0 1 1 0 1 1 2 3 3 3 2 3 3 4 4 4 4 4 3
2 2 1 1 2 1 2 3 2 2 2 3 2 3 3 2 1 0 1 0 0 1 1 0 0 0 1 1 1 2 2 2 3 4 4 3 4 4 5 5 5 5 5
2 3 2 1 1 1 1 2 2 1 2 2 2 2 2 2 2 1 1 1 0 1 1 0 0 0 0 0 1 2 2 3 3 3 4 5 5 6 5 6 6 6 5
1 2 3 2 1 1 1 1 1 1 1 1 1 0 0 2 3 2 1 1 1 1 1 1 0 0 0 0 1 2 2 3 4 4 4 4 5 6 7 5 6 6 6
1 1 2 2 2 1 1 1 1 1 1 1 2 1 1 1 1 2 2 1 2 2 2 1 1 1 1 0 1 2 2 2 4 4 5 4 4 4 6 6 6 7 7
1 2 2 2 2 2 2 1 1 2 1 1 1 2 2 2 2 2 3 3 2 2 2 2 1 1 1 1 1 2 2 3 4 4 5 5 4 4 4 5 6 6 7
1 2 2 2 2 2 2 2 2 2 2 2 2 2 1 1 2 2 3 3 4 3 3 2 2 1 2 1 2 2 3 4 4 5 6 6 6 6 6 5 5 7 7
2 2 2 2 2 2 2 2 2 3 3 3 3 2 2 3 3 3 3 3 4 3 3 2 2 2 2 1 1 3 4 5 5 6 6 7 6 6 6 6 6 5 6
2 2 2 2 3 3 3 2 2 3 3 4 4 3 3 3 3 3 3 3 4 4 3 3 2 2 2 2 3 4 3 6 6 6 7 7 6 6 6 6 6 6 6
2 2 2 3 3 3 3 3 2 3 3 4 4 4 3 3 3 3 3 3 3 4 5 3 2 2 2 2 4 3 3 7 8 7 7 7 7 6 6 7 6 6 5
3 3 3 3 3 3 3 3 3 3 3 4 3 4 4 3 3 3 3 3 3 4 5 3 3 3 4 4 5 4 5 9 9 9 8 8 7 7 7 7 7 7 6
3 3 3 3 4 4 3 3 3 4 4 4 4 4 5 4 3 4 3 3 4 4 6 5 3 4 4 5 4 4 4 5 5 9 9 9 8 8 8 8 8 8 7
3 3 4 4 4 4 3 3 4 4 4 4 5 5 5 4 5 4 4 4 4 4 5 7 5 4 5 5 5 5 5 4 4 8 9 9 10 9 9 9 9 9 8
3 3 4 4 4 4 4 4 4 4 5 5 5 5 5 5 6 5 5 4 4 5 4 5 6 4 4 4 4 5 5 4 5 6 8 9 9 10 9 10 10 9 9
4 4 4 4 4 5 5 5 5 5 5 5 5 6 6 6 6 6 5 5 5 5 5 5 5 4 4 4 4 4 4 3 4 4 6 7 9 10 10 11 10 10 10
5 4 5 5 5 5 5 5 5 6 5 6 6 6 7 8 11 8 6 5 5 5 5 5 5 5 4 3 4 3 4 4 4 3 4 5 5 5 6 9 11 11 11
4 4 5 5 5 5 9 11 8 6 6 6 6 6 7 8 10 12 12 12 11 8 7 6 6 6 6 5 4 4 4 4 5 2 3 5 4 5 5 5 10 12 12
4 5 5 5 5 7 12 12 12 7 5 5 6 6 6 6 8 5 9 12 11 14 13 9 8 8 7 5 5 6 6 5 6 4 4 6 4 6 5 6 11 12 12
4 5 6 6 6 8 12 12 13 8 5 5 6 7 7 6 6 7 6 6 7 8 10 8 7 7 7 6 7 7 6 6 6 4 4 6 5 5 5 5 9 11 10
5 5 6 5 6 8 12 13 12 5 5 6 6 7 7 6 10 12 8 7 7 7 10 13 13 12 13 13 10 5 5 5 6 5 3 4 4 4 4 5 6 8 9
5 6 7 6 6 7 11 13 12 4 5 5 6 6 10 10 11 12 7 6 8 7 6 6 7 9 8 8 11 7 6 6 6 5 3 3 3 2 4 4 3 4 5
Wind_Direction
31 27 24 17 11 4 358 344 345 349 348 347 351 359 5 11 18 38 42 40 32 20 6 215 194 177 151 114 111 122 128 132 135 130 123 123 118 114 106 106 109 107 103
29 27 23 13 8 2 353 340 341 344 338 345 352 354 356 357 354 7 42 31 24 15 23 348 142 115 129 124 126 114 114 129 149 154 146 139 136 129 124 112 111 113 109
24 22 21 12 4 356 350 342 350 351 348 350 342 332 338 350 331 320 332 201 343 357 10 359 33 59 104 144 155 138 154 147 143 151 151 156 155 149 143 138 126 127 127
20 22 16 6 357 352 355 347 354 355 347 343 334 324 324 323 305 309 326 325 160 62 355 352 358 46 98 158 203 186 179 172 160 156 160 170 168 165 165 161 151 140 143
8 19 16 3 357 353 357 349 360 354 341 339 322 318 321 311 289 302 310 21 81 87 65 15 7 8 78 91 254 219 204 193 176 171 173 183 191 188 182 175 165 158 155
359 12 14 4 0 356 357 359 350 349 341 334 323 329 312 294 286 261 284 95 105 94 74 59 45 334 350 327 263 279 229 218 200 188 182 193 198 204 199 193 184 178 170
360 3 -0 352 359 352 350 355 352 348 347 351 348 336 317 293 281 61 23 13 57 84 83 90 92 53 320 321 306 287 255 243 225 213 209 212 210 213 218 212 207 201 198
8 356 346 325 323 334 345 355 6 348 337 7 3 339 336 314 350 344 358 311 307 54 41 316 209 162 176 351 320 316 290 258 248 232 225 227 227 223 227 226 220 215 208
17 4 344 321 301 298 315 331 347 347 306 317 359 18 11 289 315 292 323 332 352 348 312 283 275 258 284 255 268 283 275 266 258 241 232 232 236 235 229 228 225 224 219
11 356 333 325 310 296 294 310 331 313 289 287 303 306 290 279 278 305 309 327 321 305 296 291 275 256 275 282 299 298 287 277 263 253 242 238 242 241 233 231 232 232 230
360 355 340 325 311 310 304 294 304 301 275 260 269 289 295 296 272 256 284 301 307 290 283 268 252 240 262 242 245 293 286 264 256 255 249 244 243 247 251 245 239 237 234
341 343 334 334 322 313 305 299 282 276 264 265 269 266 268 265 272 265 266 285 286 283 288 272 248 238 244 232 251 290 298 268 260 260 256 251 249 248 251 253 251 246 239
322 322 325 325 317 311 303 290 279 271 266 259 251 254 259 258 270 269 264 276 282 285 272 267 241 228 249 230 244 286 281 277 266 261 258 256 257 256 258 255 253 256 252
292 305 313 312 309 307 303 297 274 271 272 258 254 250 252 250 262 259 250 258 279 284 272 259 256 232 249 243 264 271 258 270 266 267 266 261 261 262 261 260 260 258 258
298 301 303 304 299 298 295 294 280 269 274 271 260 255 255 247 248 256 250 234 238 263 270 268 269 275 285 256 259 248 248 263 264 262 268 270 262 258 261 258 259 257 258
306 297 292 291 292 291 285 280 281 278 268 271 267 257 260 258 252 253 248 248 245 245 262 266 275 288 294 289 273 258 253 266 261 258 258 261 260 252 252 253 252 251 250
299 300 297 288 283 280 279 273 270 277 275 273 272 270 267 265 258 258 250 247 249 248 259 272 272 283 280 285 280 263 258 247 248 253 252 251 252 254 253 249 247 246 247
297 296 301 290 280 278 274 271 269 271 272 274 272 267 269 268 259 261 254 249 249 249 251 266 272 274 272 274 271 266 271 264 253 254 252 249 248 251 254 248 244 244 244
299 298 295 283 280 276 272 268 266 267 264 267 271 266 262 262 261 257 255 251 252 259 253 259 269 269 271 274 282 270 269 268 269 256 254 252 251 253 254 250 242 242 242
294 290 289 280 275 273 270 265 265 265 265 265 266 266 263 253 255 254 253 249 250 255 255 259 265 269 273 273 273 270 274 273 271 266 256 258 256 257 257 253 243 240 243
292 292 291 289 278 271 263 257 258 261 263 265 265 265 263 263 260 255 255 245 243 246 252 255 263 268 268 264 261 272 271 279 274 262 255 251 248 242 243 247 242 238 240
289 290 288 288 283 280 282 276 270 258 260 263 267 268 266 264 268 272 271 265 253 244 242 244 252 256 258 266 271 273 271 273 274 254 259 261 244 246 243 241 246 242 240
287 287 284 282 282 282 286 285 280 276 264 265 264 268 269 267 275 265 272 274 266 260 256 250 248 250 254 254 261 267 264 264 267 269 271 269 249 251 252 256 260 249 243
286 283 281 280 283 285 290 291 288 281 269 264 263 262 262 262 269 271 261 263 259 256 256 253 246 250 255 252 246 253 263 276 277 261 249 263 261 261 264 255 251 247 240
289 284 284 282 282 286 291 292 289 274 269 267 265 265 265 257 269 276 273 267 269 266 268 266 264 263 262 264 262 257 253 262 271 266 245 253 266 280 268 255 241 240 240
287 290 291 289 284 283 288 290 289 270 266 268 268 266 269 270 271 273 266 260 266 268 268 269 270 274 268 261 263 250 242 248 264 267 233 241 267 282 282 262 233 227 234